This is the latest recevied weather packets stored in our database for station/object WB0OCV. If no packets are shown the sender has not sent any weather packets the latest 10 day(s).
| Time | Temp. | Humidity | Pressure | Rain* | Wind** | Luminosity | Snow |
|---|---|---|---|---|---|---|---|
| 1777849619 | 11.11° C | 45% | 1010 hPa | 0 mm | - | 22 W/m² | - |
| 1777849316 | 11.11° C | 45% | 1009.9 hPa | 0 mm | - | 26 W/m² | - |
| 1777849014 | 11.67° C | 45% | 1009.9 hPa | 0 mm | - | 29 W/m² | - |
| 1777848714 | 11.67° C | 45% | 1009.6 hPa | 0 mm | - | 28 W/m² | - |
| 1777848411 | 11.67° C | 45% | 1009.7 hPa | 0 mm | - | 31 W/m² | - |
| 1777848109 | 11.67° C | 45% | 1009.7 hPa | 0 mm | - | 40 W/m² | - |
| 1777847807 | 11.67° C | 43% | 1009.6 hPa | 0 mm | - | 43 W/m² | - |
| 1777847503 | 11.67° C | 43% | 1009.4 hPa | 0 mm | - | 48 W/m² | - |
| 1777847200 | 11.67° C | 43% | 1009.4 hPa | 0 mm | - | 55 W/m² | - |
| 1777846898 | 11.67° C | 41% | 1009.6 hPa | 0 mm | - | 45 W/m² | - |
| 1777846596 | 11.67° C | 44% | 1009.3 hPa | 0 mm | - | 71 W/m² | - |
| 1777846293 | 11.67° C | 43% | 1009.2 hPa | 0 mm | - | 80 W/m² | - |
| 1777845990 | 11.67° C | 47% | 1009.2 hPa | 0 mm | - | 62 W/m² | - |
| 1777845686 | 11.67° C | 43% | 1008.9 hPa | 0 mm | - | 66 W/m² | - |
| 1777845384 | 12.22° C | 45% | 1008.9 hPa | 0 mm | - | 70 W/m² | - |
| 1777845080 | 12.22° C | 45% | 1008.8 hPa | 0 mm | - | 83 W/m² | - |
| 1777844779 | 12.22° C | 46% | 1008.8 hPa | 0 mm | - | 103 W/m² | - |
| 1777844475 | 12.22° C | 46% | 1008.8 hPa | 0 mm | - | 111 W/m² | - |
| 1777844174 | 12.22° C | 46% | 1008.9 hPa | 0 mm | - | 140 W/m² | - |
| 1777843870 | 11.67° C | 47% | 1008.8 hPa | 0 mm | - | 144 W/m² | - |
| 1777843568 | 11.67° C | 47% | 1008.6 hPa | 0 mm | - | 99 W/m² | - |
| 1777843265 | 11.67° C | 46% | 1008.5 hPa | 0 mm | - | 87 W/m² | - |
| 1777842962 | 11.67° C | 46% | 1008.5 hPa | 0 mm | - | 119 W/m² | - |
| 1777842657 | 11.67° C | 46% | 1008.5 hPa | 0 mm | - | 77 W/m² | - |
| 1777842354 | 12.22° C | 45% | 1008.4 hPa | 0 mm | - | 70 W/m² | - |
* Rain latest hour (hover to see other rain measurements)
** Current wind speed in m/s (hover to see current wind gust speed)